Location: Bamazo
(6.7448°N, 10.8189°W)
Time: 01:12:11
(UTC+00:00)

CZ-2C R/B - Pass Details

Date: 18 September 2020
Orbit: 785 x 870 km, 98.2° (Epoch: 21 October)

Event Time Altitude Azimuth Distance (km) Brightness Sun altitude
Rises 19:28:56 0° 28° (NNE) 3,434 5.6 -12.7°
Reaches altitude 10° 19:31:31 10° 36° (NE) 2,503 4.8 -13.3°
Maximum altitude 19:36:34 36° 101° (ESE) 1,355 3.3 -14.6°
Drops below altitude 10° 19:41:37 10° 166° (SSE) 2,507 5.0 -15.8°
Sets 19:44:11 0° 175° (S) 3,440 5.8 -16.5°
